Weather History for KCMA - December, 2012

Change the Weather History Date:

Friday, December 28, 2012

  Actual Average Record
Temperature  
Mean Temperature 51 °F 54 °F  
Max Temperature 63 °F 65 °F 83 °F (1963)
Min Temperature 38 °F 43 °F 27 °F (1962)
Degree Days  
Heating Degree Days 14 11  
Month to date heating degree days 268 317  
Since 1 July heating degree days 495 649  
Cooling Degree Days 0 0  
Month to date cooling degree days 0 0  
Year to date cooling degree days 387 330  
Moisture  
Dew Point 36 °F    
Average Humidity 54    
Maximum Humidity 80    
Minimum Humidity 27    
Precipitation  
Precipitation 0.00 in 0.14 in 1.75 in (1991)
Month to date precipitation 1.49 1.65  
Year to date precipitation 8.29 14.81  
Since 1 July precipitation 2.61 3.83  
Sea Level Pressure  
Sea Level Pressure 30.14 in    
Wind  
Wind Speed 6 mph (NE)    
Max Wind Speed 12 mph    
Max Gust Speed -    
Visibility 10 miles    
Events      
T = Trace of Precipitation, MM = Missing Value Source: NWS Daily Summary

Daily Weather History Graph

Daily Weather History Graph

Search for Another Location

Airport or City:

Trip Planner

Search our weather history database for the weather conditions in past years. The results will help you decide how hot, cold, wet, or windy it might be!

Date:

Astronomy

Dec. 28, 2012 Rise Set
Actual Time 7:01 AM PST 4:55 PM PST
Civil Twilight 6:33 AM PST 5:22 PM PST
Nautical Twilight 6:02 AM PST 5:54 PM PST
Astronomical Twilight 5:31 AM PST 6:24 PM PST
Moon 5:33 PM PST (12/28) 7:01 AM PST (12/28)
Length of Visible Light 10h 49m
Length of Day
9h 53m
Full, 100% of the Moon is Illuminated
Dec 28
Full
Jan 4
Last Quarter
Jan 11
New
Jan 18
First Quarter
Jan 26
Full

Hourly Weather History & Observations

Time (PST) Temp. Windchill Dew Point Humidity Pressure Visibility Wind Dir Wind Speed Gust Speed Precip Events Conditions
12:55 AM 45.0 °F 41.2 °F 30.9 °F 58% 30.14 in 10.0 mi NE 6.9 mph - N/A   Clear
1:55 AM 45.0 °F 40.6 °F 30.9 °F 58% 30.14 in 10.0 mi NE 8.1 mph - N/A   Clear
2:55 AM 44.1 °F 40.1 °F 30.9 °F 60% 30.14 in 10.0 mi North 6.9 mph - N/A   Clear
4:55 AM 41.0 °F 38.0 °F 30.9 °F 67% 30.14 in 10.0 mi North 4.6 mph - N/A   Clear
5:55 AM 39.0 °F 34.8 °F 30.0 °F 70% 30.16 in 10.0 mi NE 5.8 mph - N/A   Clear
6:55 AM 44.1 °F 39.5 °F 28.9 °F 55% 30.17 in 10.0 mi NE 8.1 mph - N/A   Clear
7:55 AM 46.9 °F - 30.0 °F 52% 30.18 in 10.0 mi ENE 8.1 mph - N/A   Clear
8:55 AM 53.1 °F - 30.0 °F 41% 30.19 in 10.0 mi East 10.4 mph - N/A   Clear
10:55 AM 61.0 °F - 30.9 °F 32% 30.18 in 10.0 mi ENE 10.4 mph - N/A   Clear
11:55 AM 62.1 °F - 28.9 °F 29% 30.15 in 10.0 mi Calm Calm - N/A   Clear
12:55 PM 62.1 °F - 36.0 °F 38% 30.12 in 10.0 mi WSW 6.9 mph - N/A   Clear
1:55 PM 62.1 °F - 43.0 °F 50% 30.11 in 10.0 mi SSW 11.5 mph - N/A   Clear
2:55 PM 61.0 °F - 41.0 °F 48% 30.11 in 10.0 mi SSW 10.4 mph - N/A   Clear
4:55 PM 55.9 °F - 46.9 °F 72% 30.11 in 10.0 mi Calm Calm - N/A   Clear
5:55 PM 53.1 °F - 46.0 °F 77% 30.12 in 10.0 mi NW 4.6 mph - N/A   Clear
6:55 PM 51.1 °F - 43.0 °F 74% 30.12 in 10.0 mi NNW 3.5 mph - N/A   Clear
7:55 PM 48.9 °F - 42.1 °F 77% 30.13 in 10.0 mi Calm Calm - N/A   Clear
8:55 PM 48.0 °F - 41.0 °F 77% 30.12 in 10.0 mi East 5.8 mph - N/A   Partly Cloudy
9:55 PM 46.9 °F - 39.0 °F 74% 30.12 in 10.0 mi Calm Calm - N/A   Clear
10:55 PM 45.0 °F 42.6 °F 37.0 °F 74% 30.11 in 10.0 mi ENE 4.6 mph - N/A   Clear
11:55 PM 41.0 °F 39.0 °F 35.1 °F 79% 30.10 in 10.0 mi ENE 3.5 mph - N/A   Clear